This is the latest recevied weather packets stored in our database for station/object N8QQQ. If no packets are shown the sender has not sent any weather packets the latest 10 day(s).
| Time | Temp. | Humidity | Pressure | Rain* | Wind** | Luminosity | Snow |
|---|---|---|---|---|---|---|---|
| 1778111421 | 3.89° C | 55% | 1011.8 hPa | 0 mm | - | 17 W/m² | - |
| 1778111119 | 3.89° C | 56% | 1011.9 hPa | 0 mm | - | 17 W/m² | - |
| 1778110816 | 3.89° C | 56% | 1011.9 hPa | 0 mm | - | 18 W/m² | - |
| 1778110513 | 3.89° C | 55% | 1011.9 hPa | 0 mm | - | 18 W/m² | - |
| 1778110210 | 3.89° C | 54% | 1011.8 hPa | 0 mm | - | 18 W/m² | - |
| 1778109906 | 3.89° C | 53% | 1011.7 hPa | 0 mm | - | 19 W/m² | - |
| 1778109601 | 3.89° C | 52% | 1011.7 hPa | 0 mm | - | 23 W/m² | - |
| 1778109299 | 3.89° C | 52% | 1011.6 hPa | 0 mm | - | 26 W/m² | - |
| 1778108997 | 3.89° C | 51% | 1011.8 hPa | 0 mm | - | 25 W/m² | - |
| 1778108693 | 3.89° C | 52% | 1011.7 hPa | 0 mm | - | 28 W/m² | - |
| 1778108390 | 3.89° C | 51% | 1011.7 hPa | 0 mm | - | 31 W/m² | - |
| 1778108087 | 4.44° C | 51% | 1011.7 hPa | 0 mm | - | 31 W/m² | - |
| 1778107783 | 4.44° C | 51% | 1011.6 hPa | 0 mm | - | 33 W/m² | - |
| 1778107481 | 4.44° C | 51% | 1011.6 hPa | 0 mm | - | 35 W/m² | - |
| 1778107177 | 4.44° C | 49% | 1011.6 hPa | 0 mm | - | 36 W/m² | - |
| 1778106873 | 4.44° C | 49% | 1011.8 hPa | 0 mm | - | 37 W/m² | - |
| 1778106570 | 4.44° C | 50% | 1011.7 hPa | 0 mm | - | 43 W/m² | - |
| 1778106266 | 4.44° C | 49% | 1011.5 hPa | 0 mm | - | 47 W/m² | - |
| 1778105963 | 4.44° C | 49% | 1011.6 hPa | 0 mm | - | 54 W/m² | - |
| 1778105660 | 4.44° C | 50% | 1011.6 hPa | 0 mm | - | 62 W/m² | - |
| 1778105358 | 4.44° C | 50% | 1011.5 hPa | 0 mm | - | 67 W/m² | - |
| 1778105054 | 4.44° C | 50% | 1011.6 hPa | 0 mm | - | 67 W/m² | - |
| 1778104750 | 4.44° C | 49% | 1011.5 hPa | 0 mm | - | 74 W/m² | - |
| 1778104447 | 4.44° C | 50% | 1011.6 hPa | 0 mm | - | 81 W/m² | - |
| 1778104143 | 4.44° C | 50% | 1011.5 hPa | 0 mm | - | 66 W/m² | - |
* Rain latest hour (hover to see other rain measurements)
** Current wind speed in m/s (hover to see current wind gust speed)